Find Xingwang Jishu Shiyan W.

NORAD ID: 68687 Int'l Des: 2026-078 Owner: ZXW Country: CN operational
LEOCIRCULARPOLAR

实时位置

正在加载3D地球...

关于 Xingwang Jishu Shiyan W.

正在加载描述...

即将过境

Passes for default location (London). Set your location on the main map for personalized predictions.

高度历史

Loading altitude history...

两行轨道根数

1 68687U 26078A 26105.98357882 -.00001847 00000-0 -21662-2 0 9993
2 68687 86.4973 304.2713 0008120 274.4535 85.5696 13.68810185 601
Epoch: Apr 15, 2026 • Age: 9 hours

当前状态

高度 1023.6 km
速度 7.34 km/s
星下点 84.41°N, 108.61°E
发射日期 Apr 11, 2026
运行时间 5 days
类型 internet

技术详情

分类 Payload
质量 300.00 kg
干质量 300.00 kg
总质量 300.00 kg
长度 2.50 m
直径 0.80 m
跨度 2.50 m
形状 Box + 2 Pan
制造商 UNKCN
阶段状态 In Orbit
所有者/国家 ZXW/CN

Most Searched